Weather History for KUGN - October, 2013

Change the Weather History Date:

Sunday, October 20, 2013

  Actual Average Record
Temperature  
Mean Temperature 44 °F -  
Max Temperature 53 °F 59 °F 82 °F (2003)
Min Temperature 34 °F 41 °F 29 °F (2002)
Degree Days  
Heating Degree Days 21 15  
Month to date heating degree days 212 254  
Since 1 July heating degree days 390 420  
Cooling Degree Days 0 0  
Month to date cooling degree days 7 7  
Year to date cooling degree days 590 564  
Moisture  
Dew Point 41 °F    
Average Humidity 81    
Maximum Humidity 100    
Minimum Humidity 61    
Precipitation  
Precipitation 0.02 in 0.08 in 0.38 in (2008)
Month to date precipitation 0.84 1.88  
Year to date precipitation 25.25 29.79  
Sea Level Pressure  
Sea Level Pressure 29.81 in    
Wind  
Wind Speed 3 mph (SSE)    
Max Wind Speed 13 mph    
Max Gust Speed 18 mph    
Visibility 10 miles    
Events Rain    
T = Trace of Precipitation, MM = Missing Value Source: NWS Daily Summary

Daily Weather History Graph

Daily Weather History Graph

Search for Another Location

Airport or City:

Trip Planner

Search our weather history database for the weather conditions in past years. The results will help you decide how hot, cold, wet, or windy it might be!

Date:

Astronomy

Oct. 20, 2013 Rise Set
Actual Time 7:10 AM CDT 6:01 PM CDT
Civil Twilight 6:41 AM CDT 6:29 PM CDT
Nautical Twilight 6:09 AM CDT 7:02 PM CDT
Astronomical Twilight 5:36 AM CDT 7:34 PM CDT
Moon 7:07 PM CDT (10/20) 8:50 AM CDT (10/20)
Length of Visible Light 11h 47m
Length of Day
10h 50m
Full, 97% of the Moon is Illuminated
Oct 20
Full
Oct 26
Last Quarter
Nov 3
New
Nov 9
First Quarter
Nov 17
Full

Hourly Weather History & Observations

Time (CDT) Temp. Windchill Dew Point Humidity Pressure Visibility Wind Dir Wind Speed Gust Speed Precip Events Conditions
12:52 AM 42.1 °F 40.2 °F 37.9 °F 85% 29.82 in 10.0 mi Variable 3.5 mph - N/A   Overcast
1:52 AM 42.1 °F - 37.9 °F 85% 29.83 in 10.0 mi Calm Calm - N/A   Overcast
2:52 AM 42.1 °F - 37.9 °F 85% 29.82 in 10.0 mi Calm Calm - N/A   Overcast
3:52 AM 39.9 °F - 37.0 °F 89% 29.82 in 10.0 mi Calm Calm - N/A   Mostly Cloudy
4:52 AM 39.9 °F - 37.0 °F 89% 29.83 in 10.0 mi Calm Calm - N/A   Mostly Cloudy
5:52 AM 37.9 °F - 36.0 °F 93% 29.84 in 10.0 mi Calm Calm - N/A   Clear
6:52 AM 35.1 °F - 35.1 °F 100% 29.86 in 7.0 mi Calm Calm - N/A   Clear
7:52 AM 37.0 °F 34.5 °F 36.0 °F 96% 29.87 in 6.0 mi Variable 3.5 mph - N/A   Clear
8:52 AM 41.0 °F - 37.9 °F 89% 29.88 in 9.0 mi Calm Calm - N/A   Clear
9:52 AM 44.1 °F - 39.0 °F 82% 29.88 in 10.0 mi Calm Calm - N/A   Mostly Cloudy
10:52 AM 46.0 °F 44.8 °F 36.0 °F 68% 29.88 in 10.0 mi SSE 3.5 mph - N/A   Overcast
11:52 AM 48.0 °F - 36.0 °F 63% 29.86 in 10.0 mi Calm Calm - N/A   Mostly Cloudy
12:52 PM 50.0 °F - 39.9 °F 68% 29.85 in 10.0 mi SSE 5.8 mph - 0.00 in Rain Light Rain
1:52 PM 48.9 °F - 39.0 °F 69% 29.79 in 10.0 mi ESE 9.2 mph - 0.00 in   Mostly Cloudy
2:52 PM 50.0 °F - 42.1 °F 74% 29.78 in 9.0 mi SE 10.4 mph - 0.00 in   Overcast
3:52 PM 52.0 °F - 43.0 °F 71% 29.76 in 10.0 mi SE 9.2 mph - N/A   Mostly Cloudy
4:52 PM 53.1 °F - 44.1 °F 71% 29.73 in 10.0 mi SSE 8.1 mph - N/A   Scattered Clouds
5:52 PM 51.1 °F - 45.0 °F 80% 29.73 in 10.0 mi South 3.5 mph - N/A   Overcast
6:52 PM 51.1 °F - 45.0 °F 80% 29.74 in 10.0 mi Calm Calm - N/A   Overcast
7:52 PM 51.1 °F - 46.0 °F 83% 29.75 in 9.0 mi Calm Calm - N/A   Overcast
8:52 PM 50.0 °F - 46.0 °F 86% 29.77 in 9.0 mi South 5.8 mph - N/A   Overcast
9:52 PM 51.1 °F - 46.9 °F 86% 29.76 in 10.0 mi SW 5.8 mph - 0.02 in   Overcast
10:52 PM 51.1 °F - 46.9 °F 86% 29.75 in 10.0 mi SW 4.6 mph - 0.00 in Rain Light Rain
11:52 PM 51.1 °F - 46.9 °F 86% 29.76 in 10.0 mi SSW 6.9 mph - 0.00 in Rain Light Rain